Change the Weather History Date:

Saturday, January 11, 2014

  Actual Average Record
Temperature  
Mean Temperature 45 °F -  
Max Temperature 54 °F 35 °F 62 °F (2013)
Min Temperature 36 °F 22 °F 3 °F (1997)
Degree Days  
Heating Degree Days 20    
Moisture  
Dew Point 40 °F    
Average Humidity 79    
Maximum Humidity 89    
Minimum Humidity 66    
Precipitation  
Precipitation 0.00 in - - ()
Sea Level Pressure  
Sea Level Pressure 29.60 in    
Wind  
Wind Speed 12 mph (SW)    
Max Wind Speed 25 mph    
Max Gust Speed 36 mph    
Visibility 9 miles    
Events Rain    
Averages and records for this station are not official NWS values.
T = Trace of Precipitation, MM = Missing Value Source: NWS Daily Summary

Daily Weather History Graph

Daily Weather History Graph

Search for Another Location

Airport or City:

Trip Planner

Search our weather history database for the weather conditions in past years. The results will help you decide how hot, cold, wet, or windy it might be!

Date:

Astronomy

Jan. 11, 2014 Rise Set
Actual Time 7:52 AM EST 5:27 PM EST
Civil Twilight 7:22 AM EST 5:57 PM EST
Nautical Twilight 6:49 AM EST 6:30 PM EST
Astronomical Twilight 6:16 AM EST 7:03 PM EST
Moon 2:10 PM EST (1/11) 3:56 AM EST (1/11)
Length of Visible Light 10h 34m
Length of Day
9h 34m
Waxing Gibbous, 83% of the Moon is Illuminated
Jan 11
Waxing Gibbous
Jan 15
Full
Jan 24
Last Quarter
Jan 30
New
Feb 6
First Quarter

Hourly Weather History & Observations

Time (EST) Temp. Windchill Dew Point Humidity Pressure Visibility Wind Dir Wind Speed Gust Speed Precip Events Conditions
12:15 AM 48.7 °F - 43.9 °F 83% 29.74 in 10.0 mi SSE 11.5 mph - N/A   Overcast
12:35 AM 50.4 °F - 44.8 °F 81% 29.74 in 10.0 mi South 11.5 mph - N/A   Overcast
12:55 AM 51.1 °F - 45.1 °F 80% 29.73 in 10.0 mi South 10.4 mph - N/A   Overcast
1:15 AM 51.8 °F - 45.9 °F 80% 29.73 in 10.0 mi South 12.7 mph - N/A   Overcast
1:35 AM 52.0 °F - 45.9 °F 80% 29.71 in 10.0 mi South 11.5 mph 18.4 mph N/A   Overcast
1:55 AM 51.3 °F - 45.5 °F 81% 29.70 in 10.0 mi South 9.2 mph - N/A   Overcast
2:15 AM 50.7 °F - 45.5 °F 82% 29.70 in 10.0 mi South 8.1 mph - N/A   Overcast
2:35 AM 50.7 °F - 45.7 °F 83% 29.70 in 7.0 mi SSW 6.9 mph - N/A Rain Light Rain
2:55 AM 50.0 °F - 45.5 °F 85% 29.69 in 7.0 mi SSE 6.9 mph - N/A Rain Rain
3:15 AM 48.9 °F - 45.0 °F 86% 29.67 in 7.0 mi SSE 8.1 mph - N/A Rain Light Rain
3:35 AM 48.9 °F - 45.3 °F 87% 29.66 in 10.0 mi SSE 8.1 mph - N/A   Heavy Drizzle
3:55 AM 49.3 °F - 45.9 °F 88% 29.66 in 5.0 mi SSE 11.5 mph - N/A Rain Rain
4:15 AM 49.3 °F - 45.9 °F 88% 29.62 in 7.0 mi SSE 8.1 mph - N/A Rain Rain
4:35 AM 49.8 °F - 46.4 °F 88% 29.61 in 5.0 mi SSE 9.2 mph - N/A Rain Rain
4:55 AM 50.0 °F - 46.8 °F 89% 29.60 in 7.0 mi South 8.1 mph - N/A Rain Rain
5:15 AM 50.0 °F - 46.6 °F 88% 29.59 in 7.0 mi SSE 8.1 mph - N/A Rain Rain
5:35 AM 50.0 °F - 46.6 °F 88% 29.60 in 5.0 mi South 8.1 mph - N/A Rain Rain
5:55 AM 50.0 °F - 46.6 °F 88% 29.59 in 5.0 mi South 9.2 mph - N/A Rain Rain
6:15 AM 50.2 °F - 46.9 °F 89% 29.59 in 7.0 mi South 10.4 mph - N/A Rain Rain
6:35 AM 50.2 °F - 46.9 °F 89% 29.57 in 5.0 mi South 10.4 mph - N/A Rain Rain
6:55 AM 50.0 °F - 46.6 °F 88% 29.56 in 5.0 mi South 9.2 mph - N/A Rain Light Rain
7:15 AM 49.6 °F - 46.6 °F 89% 29.53 in 5.0 mi South 9.2 mph - N/A Rain Light Rain
7:35 AM 49.8 °F - 46.6 °F 89% 29.53 in 10.0 mi South 10.4 mph - N/A   Light Drizzle
7:55 AM 49.5 °F - 46.4 °F 89% 29.52 in 10.0 mi South 10.4 mph - N/A   Overcast
8:15 AM 49.6 °F - 46.6 °F 89% 29.51 in 10.0 mi South 11.5 mph - N/A   Overcast
8:35 AM 49.8 °F - 46.6 °F 89% 29.50 in 10.0 mi South 11.5 mph - N/A   Mostly Cloudy
8:55 AM 49.8 °F - 46.8 °F 89% 29.52 in 10.0 mi South 12.7 mph - N/A   Mostly Cloudy
9:15 AM 50.2 °F - 46.9 °F 89% 29.49 in 10.0 mi South 11.5 mph - N/A   Overcast
9:35 AM 50.2 °F - 46.8 °F 88% 29.48 in 10.0 mi South 11.5 mph - N/A   Overcast
9:55 AM 50.7 °F - 47.3 °F 88% 29.48 in 10.0 mi South 11.5 mph - N/A   Overcast
10:15 AM 50.9 °F - 47.5 °F 88% 29.48 in 10.0 mi South 11.5 mph - N/A   Overcast
10:35 AM 51.1 °F - 47.7 °F 88% 29.50 in 4.0 mi South 15.0 mph - N/A Rain Heavy Rain
10:55 AM 51.4 °F - 47.8 °F 87% 29.49 in 10.0 mi South 17.3 mph - N/A   Overcast
11:15 AM 51.8 °F - 48.2 °F 88% 29.49 in 10.0 mi SSW 18.4 mph - N/A   Overcast
11:35 AM 51.8 °F - 48.0 °F 87% 29.48 in 10.0 mi SSW 13.8 mph - N/A   Overcast
11:55 AM 52.7 °F - 48.2 °F 85% 29.47 in 10.0 mi SW 17.3 mph 23.0 mph N/A   Overcast
12:15 PM 52.9 °F - 47.7 °F 82% 29.46 in 10.0 mi SW 13.8 mph 18.4 mph N/A   Overcast
12:35 PM 53.1 °F - 47.5 °F 81% 29.45 in 10.0 mi SW 16.1 mph 24.2 mph N/A   Mostly Cloudy
12:55 PM 54.3 °F - 47.3 °F 77% 29.43 in 10.0 mi SW 17.3 mph 27.6 mph N/A   Mostly Cloudy
1:15 PM 53.2 °F - 45.1 °F 74% 29.45 in 10.0 mi WSW 18.4 mph 35.7 mph N/A   Overcast
1:35 PM 51.4 °F - 43.3 °F 74% 29.45 in 10.0 mi WSW 16.1 mph 24.2 mph N/A   Overcast
1:55 PM 51.1 °F - 42.1 °F 71% 29.47 in 10.0 mi West 23.0 mph 35.7 mph N/A   Overcast
2:15 PM 48.2 °F - 38.5 °F 69% 29.48 in 10.0 mi West 21.9 mph 29.9 mph N/A   Overcast
2:35 PM 47.5 °F - 37.0 °F 67% 29.48 in 1.0 mi West 19.6 mph 29.9 mph N/A   Haze
2:55 PM 47.3 °F - 37.2 °F 68% 29.49 in 10.0 mi West 21.9 mph 29.9 mph N/A   Overcast
3:15 PM 47.1 °F - 36.7 °F 67% 29.50 in 10.0 mi West 25.3 mph 33.4 mph N/A   Overcast
3:35 PM 46.2 °F 37.9 °F 35.6 °F 66% 29.52 in 10.0 mi West 24.2 mph 27.6 mph N/A   Overcast
3:55 PM 44.6 °F 35.7 °F 34.5 °F 68% 29.54 in 10.0 mi West 24.2 mph 33.4 mph N/A   Overcast
4:15 PM 43.5 °F 35.2 °F 34.3 °F 70% 29.55 in 10.0 mi West 19.6 mph 25.3 mph N/A   Overcast
4:35 PM 43.3 °F 34.7 °F 33.6 °F 69% 29.57 in 10.0 mi West 20.7 mph 25.3 mph N/A   Overcast
4:55 PM 42.6 °F 34.9 °F 32.7 °F 68% 29.58 in 10.0 mi West 16.1 mph 27.6 mph N/A   Overcast
5:15 PM 42.1 °F 35.2 °F 32.2 °F 68% 29.59 in 10.0 mi West 12.7 mph 18.4 mph N/A   Overcast
5:35 PM 41.5 °F 35.4 °F 32.0 °F 69% 29.59 in 10.0 mi West 10.4 mph - N/A   Overcast
5:55 PM 41.2 °F 34.5 °F 32.0 °F 70% 29.61 in 10.0 mi West 11.5 mph 20.7 mph N/A   Overcast
6:15 PM 40.8 °F 35.0 °F 32.2 °F 71% 29.61 in 10.0 mi West 9.2 mph - N/A   Overcast
6:35 PM 40.5 °F 32.8 °F 32.2 °F 72% 29.63 in 10.0 mi West 13.8 mph - N/A   Overcast
6:55 PM 40.1 °F 32.4 °F 32.0 °F 73% 29.64 in 10.0 mi West 13.8 mph 19.6 mph N/A   Overcast
7:15 PM 39.7 °F 30.0 °F 31.8 °F 73% 29.65 in 10.0 mi West 20.7 mph 26.5 mph N/A   Overcast
7:35 PM 39.4 °F 30.4 °F 32.0 °F 75% 29.67 in 10.0 mi West 17.3 mph 25.3 mph N/A   Overcast
7:55 PM 39.0 °F 29.6 °F 31.8 °F 75% 29.68 in 10.0 mi West 18.4 mph 28.8 mph N/A   Overcast
8:15 PM 38.5 °F 28.6 °F 30.7 °F 74% 29.69 in 10.0 mi West 19.6 mph 28.8 mph N/A   Overcast
8:35 PM 37.9 °F 29.6 °F 30.2 °F 74% 29.70 in 10.0 mi West 13.8 mph 25.3 mph N/A   Overcast
8:55 PM 37.4 °F 28.9 °F 30.6 °F 76% 29.71 in 10.0 mi West 13.8 mph - N/A   Overcast
9:15 PM 37.4 °F 27.8 °F 30.4 °F 76% 29.73 in 10.0 mi West 17.3 mph 20.7 mph N/A   Overcast
9:35 PM 37.4 °F 28.9 °F 30.0 °F 75% 29.73 in 10.0 mi West 13.8 mph 21.9 mph N/A   Overcast
9:55 PM 37.4 °F 27.8 °F 29.5 °F 73% 29.74 in 10.0 mi West 17.3 mph 21.9 mph N/A   Overcast
10:15 PM 37.4 °F 29.3 °F 29.5 °F 73% 29.76 in 10.0 mi WSW 12.7 mph 18.4 mph N/A   Overcast
10:35 PM 37.4 °F 28.9 °F 29.1 °F 72% 29.76 in 10.0 mi West 13.8 mph 21.9 mph N/A   Overcast
10:55 PM 37.4 °F 28.9 °F 28.6 °F 70% 29.77 in 10.0 mi West 13.8 mph 20.7 mph N/A   Overcast
11:15 PM 37.0 °F 29.8 °F 28.4 °F 71% 29.77 in 10.0 mi WSW 10.4 mph 19.6 mph N/A   Overcast
11:35 PM 36.9 °F 29.6 °F 28.4 °F 71% 29.78 in 10.0 mi WSW 10.4 mph - N/A   Overcast
11:55 PM 36.9 °F 30.1 °F 28.4 °F 71% 29.78 in 10.0 mi WSW 9.2 mph - N/A   Overcast